Location: Cazavet
(43.0017°N, 1.0431°E)
Time: 22:59:06
(UTC+00:00)

SL-12 R/B(2) - Pass Details

Date: 18 January 2026
Orbit: 1171 x 2178 km, 63.4° (Epoch: 13 February)

Event Time Altitude Azimuth Distance (km) Brightness Sun altitude
Rises 05:30:51 0° 219° (SW) 4,139 6.5 -20.1°
Reaches altitude 10° 05:33:26 10° 220° (SW) 3,242 5.9 -19.7°
Maximum altitude 05:41:14 79° 308° (NW) 1,447 4.2 -18.3°
Drops below altitude 10° 05:50:51 10° 36° (NE) 3,932 6.9 -16.6°
Sets 05:54:17 0° 38° (NE) 5,068 7.5 -15.9°
